TimeEST,TemperatureF,Dew PointF,Humidity,Sea Level PressureIn,VisibilityMPH,Wind Direction,Wind SpeedMPH,Gust SpeedMPH,PrecipitationIn,Events,Conditions,WindDirDegrees,DateUTC
12:51 AM,-4.0,-4.0,100,-9999,0.0,WNW,66.7,73.6,N/A,Fog,Light Freezing Fog,300,2013-12-08 05:51:00
1:52 AM,-4.0,-4.0,100,-9999,0.0,WNW,63.3,-,N/A,Fog,Light Freezing Fog,300,2013-12-08 06:52:00
2:55 AM,-4.0,-4.0,100,-9999,0.0,WNW,59.8,71.3,N/A,Fog,Light Freezing Fog,300,2013-12-08 07:55:00
3:54 AM,-5.8,-5.8,100,-9999,0.1,WNW,67.9,73.6,N/A,Fog,Light Freezing Fog,300,2013-12-08 08:54:00
4:52 AM,-5.8,-5.8,100,-9999,0.1,WNW,64.4,71.3,N/A,Fog,Light Freezing Fog,300,2013-12-08 09:52:00
5:49 AM,-4.0,-4.0,100,-9999,0.1,WNW,62.1,-,N/A,Fog,Light Freezing Fog,300,2013-12-08 10:49:00
6:53 AM,-5.8,-5.8,100,-9999,0.1,WNW,58.7,65.6,N/A,Fog,Light Freezing Fog,300,2013-12-08 11:53:00
7:54 AM,-5.8,-5.8,100,-9999,0.1,WNW,61.0,-,N/A,Fog,Light Freezing Fog,290,2013-12-08 12:54:00
8:56 AM,-4.0,-4.0,100,-9999,0.1,WNW,57.5,65.6,N/A,Fog,Light Freezing Fog,300,2013-12-08 13:56:00
9:59 AM,-4.0,-4.0,100,-9999,0.1,WNW,59.8,-,N/A,Fog,Light Freezing Fog,300,2013-12-08 14:59:00
10:54 AM,-4.0,-4.0,100,-9999,0.1,WNW,51.8,64.4,N/A,Fog,Light Freezing Fog,300,2013-12-08 15:54:00
11:57 AM,-4.0,-4.0,100,-9999,0.1,WNW,48.3,58.7,N/A,Fog,Light Freezing Fog,300,2013-12-08 16:57:00
12:53 PM,-2.2,-2.2,100,-9999,0.2,WNW,51.8,-,N/A,Fog,Light Freezing Fog,300,2013-12-08 17:53:00
1:56 PM,-0.4,-9.4,66,-9999,120.0,WNW,44.9,56.4,N/A,,Mostly Cloudy,300,2013-12-08 18:56:00
2:56 PM,-0.4,-11.2,60,-9999,120.0,NW,40.3,50.6,N/A,,Mostly Cloudy,310,2013-12-08 19:56:00
3:54 PM,-2.2,-2.2,100,-9999,0.2,NW,35.7,42.6,N/A,Fog,Light Freezing Fog,310,2013-12-08 20:54:00
4:55 PM,1.4,-22.0,33,-9999,80.0,NW,38.0,-,N/A,,Mostly Cloudy,310,2013-12-08 21:55:00
5:58 PM,3.2,-23.8,28,-9999,80.0,NW,36.8,-,N/A,,Mostly Cloudy,310,2013-12-08 22:58:00
6:50 PM,6.8,-16.6,34,-9999,100.0,NW,32.2,39.1,N/A,,Mostly Cloudy,320,2013-12-08 23:50:00
7:56 PM,6.8,-13.0,40,-9999,100.0,NW,29.9,-,N/A,,Overcast,310,2013-12-09 00:56:00
8:54 PM,6.8,-16.6,34,-9999,120.0,NW,20.7,-,N/A,,Overcast,310,2013-12-09 01:54:00
9:57 PM,8.6,-14.8,34,-9999,120.0,West,15.0,-,N/A,,Overcast,280,2013-12-09 02:57:00
10:55 PM,10.4,-16.6,29,-9999,110.0,WSW,16.1,-,N/A,,Overcast,250,2013-12-09 03:55:00
11:55 PM,12.2,-14.8,29,-9999,100.0,WSW,17.3,-,N/A,,Overcast,240,2013-12-09 04:55:00